Regional Weather Roundup
Issued by NWS

Home | Current Version | Previous Version | Text Only | Print | Product List | Glossary Off
Versions: 1 2 3 4 5 6 7 8 9 10 11 12 13 14 15 16 17 18 19 20 21 22 23 24 25 26 27 28 29 30 31 32 33 34 35 36 37 38 39 40 41 42 43 44 45 46 47 48 49 50

000
ASUS45 KBOU 100910
RWRCO

WEATHER ROUNDUP FOR COLORADO
NATIONAL WEATHER SERVICE DENVER/BOULDER CO
300 AM MDT THU JUL 10 2014

NOTE: "FAIR" INDICATES FEW OR NO CLOUDS BELOW 12000 FEET WITH NO
SIGNIFICANT WEATHER AND/OR OBSTRUCTIONS TO VISIBILITY.

COZ001>005-013-030-031-101000-
...NORTHWEST COLORADO...

CITY           SKY/WX    TMP DP  RH WIND       PRES   REMARKS
CRAIG          CLEAR     49  45  86 CALM      30.18S
HAYDEN         CLEAR     55  41  58 SE5       30.20S
MEEKER         MOCLDY    57  49  74 CALM      30.19S
MOUNT WERNER   CLEAR     59  28  31 SW12      30.49S
STEAMBOAT SPGS CLEAR     54  43  66 CALM      30.22R
WALDEN         CLEAR     50  43  76 SE5       30.27S
$$

COZ006>008-011-101000-
...WEST CENTRAL VALLEYS...

CITY           SKY/WX    TMP DP  RH WIND       PRES   REMARKS
GRAND JUNCTION PTCLDY    68  50  52 NE7       30.08R
MONTROSE       MOCLDY    66  48  52 E6        30.18R
EAGLE          CLOUDY    57  43  58 CALM      30.24S
RIFLE          MOCLDY    63  45  51 E5        30.14S
DELTA          PTCLDY    69  45  42 NE3       30.13R
NUCLA          PTCLDY    64  50  59 SE6       30.23F
$$

COZ017>023-064>068-101000-
...SOUTHWEST COLORADO...

CITY           SKY/WX    TMP DP  RH WIND       PRES   REMARKS
DURANGO        MOCLDY    59  51  75 N7        30.27F
CORTEZ         PTCLDY    63  51  65 E5        30.21S
PAGOSA SPRINGS MOCLDY    52  51  97 CALM      30.35F
TELLURIDE      MOCLDY    55  45  67 CALM      30.40S
WOLF CREEK PAS NOT AVBL
$$

COZ009-010-012-014-032>034-037-058>063-101000-
...CENTRAL COLORADO...

CITY           SKY/WX    TMP DP  RH WIND       PRES   REMARKS
ASPEN          CLOUDY    55  41  59 VRB3      30.29R
BUENA VISTA    CLOUDY    57  42  55 CALM      30.30S
COPPER MTN     CLOUDY    54  32  43 S8        30.60F
BERTHOUD PASS  FAIR      45  32  61 NW15      30.63F
COTTONWOOD PAS CLOUDY    61  36  39 W9        30.42F
GUNNISON       NOT AVBL
KREMMLING      MOCLDY    50  43  76 CALM      30.29S
LEADVILLE      CLOUDY    48  35  60 NE5       30.43F
MONARCH PASS   MOCLDY    46  36  66 W16       30.69S
SALIDA         CLOUDY   N/A N/A N/A CALM      30.33S
SUNLIGHT       MOCLDY    54  41  62 SW3       30.52S
WILKERSON PASS MOCLDY    50  37  62 W8        30.55S
$$

COZ069>075-101000-
...SAN LUIS VALLEY/SANGRE DE CRISTO MOUNTAINS...

CITY           SKY/WX    TMP DP  RH WIND       PRES   REMARKS
ALAMOSA        PTCLDY    51  44  77 S5        30.30R
LA VETA PASS   CLEAR     46  41  81 SW16G23   30.44F
SAGUACHE       NOT AVBL
$$

COZ035-036-038>040-101000-
...NORTHERN COLORADO FRONT RANGE...

CITY           SKY/WX    TMP DP  RH WIND       PRES   REMARKS
DENVER INTL AP MOCLDY    64  44  48 S8        30.02F
DMNS CITY PARK   N/A     67  48  50 SW6       30.01F
AURORA         MOCLDY    65  46  49 S9        30.05F
FRONT RANGE AP NOT AVBL
ERIE MUNI ARPT PTCLDY    60  51  71 CALM      30.01F
BOULDER MUN AP PTCLDY    68  43  40 CALM      30.01F
CENTENNIAL     PTCLDY    66  42  41 S8        30.06F
BROOMFIELD     PTCLDY    68  41  37 W5        30.05S
FORT COLLINS   PTCLDY    64  55  72 CALM      30.01F
LONGMONT       PTCLDY    63  53  70 CALM      30.02F
$$

COZ041-046-047-076>085-087-088-101000-
...PIKES PEAK/PALMER DIVIDE AND SOUTHERN FOOTHILLS...

CITY           SKY/WX    TMP DP  RH WIND       PRES   REMARKS
COLO. SPRINGS  PTCLDY    63  47  55 E7        30.14F
A. F. ACADEMY  PTCLDY    60  44  57 CALM      30.16F
ELLICOTT       NOT AVBL
FALCON         PTCLDY    58  47  67 CALM      30.18F
FORT CARSON    PTCLDY    60  45  56 NW5       30.11S
LIMON          PTCLDY    54  50  86 SW5       30.05F
MONUMENT HILL  PTCLDY    55  43  62 S10       30.16F
TRINIDAD       CLEAR     68  49  50 W18       30.07F
$$

COZ042>045-048>051-090-091-101000-
...NORTHEAST COLORADO...

CITY           SKY/WX    TMP DP  RH WIND       PRES   REMARKS
GREELEY ARPT   NOT AVBL
AKRON          CLEAR     69  51  52 SW15G28   29.97F
BURLINGTON     CLEAR     62  53  72 W8        29.95F
WRAY           CLEAR     65  52  62 E6        29.96R
STERLING       CLEAR     63  59  88 CALM      29.93F
HOLYOKE        CLEAR     64  61  88 E14       29.97R
FORT MORGAN    CLEAR     62  52  69 SW6       29.98F
$$

COZ086-089-092>099-101000-
...SOUTHEAST COLORADO...

CITY           SKY/WX    TMP DP  RH WIND       PRES   REMARKS
PUEBLO         PTCLDY    66  52  60 NE5       30.00F
LA JUNTA       CLEAR     68  50  52 SE5       29.96F
LAMAR          PTCLDY    67  49  52 SW7       29.93F
SPRINGFIELD      N/A     69  51  52 SW10      30.01F
$$


USA.gov is the U.S. government's official web portal to all federal, state and local government web resources and services.